Content
SEND FEEDBACK

Daily
Averages
Monthly
Summary
United States of America

MAURICEVILLE, TEXAS


Home > North America > United States > Texas
Elevation: 20 feet     Latitude: 30 14N     Longitude: 093 44W

WEATHER
 
SELECT A DAY
Number of Records: 109,129;   Date Range: 8/25/05 - 8/21/14
 
SHARE

PRINT THIS DATA

[ ← Previous Day ]
WEATHER ALMANAC - SEPTEMBER 25, 2013
[ Next Day → ]
[ °C ]   °F
Weather ElementAverageHighLow
Temperature76.3 °F90.9 °F (2:35 pm)65.8 °F (7:15 am)
Dewpoint65.5 °F73.9 °F (9:55 am)49.8 °F (4:55 pm)
Humidity75.3 %98 % (3:15 am)25 % (4:55 pm)
Barometer29.84 in29.89 in (10:15 am)29.80 in (4:15 pm)
Wind Speed1.7 mph5.8 mph (10:35 am)
Weather ElementAverage
Visibility6.4 mi
Wind DirectionESE (112.5 °)

Weather ElementTotal
Precipitation---
Cooling Degree Days13.4 (Base 65)
Growing Degree Days28.4 (Base 50)
Averaged from 71 records on September 25, 2013
WEATHER CONDITIONS BREAKOUT
WIND DIRECTION BREAKOUT
WEATHER BY HOUR - SEPTEMBER 25, 2013
[ °C ]   °F
Local TimeTemperatureDewpointHumidityBarometerVisibilityWind DirectionWind SpeedGust SpeedPrecipitationEventsConditions
12:35 AM72.0 °F71.1 °F97 %29.85 in2.5 miCalmClear
12:55 AM71.4 °F70.5 °F97 %29.85 in4.0 miCalmClear
1:15 AM71.4 °F70.5 °F97 %29.84 in2.5 miCalmClear
1:35 AM71.1 °F70.2 °F97 %29.84 in0.8 miCalmMist
1:55 AM70.9 °F70.0 °F97 %29.84 in0.8 miCalmMist
2:15 AM70.7 °F69.8 °F97 %29.84 in0.8 miCalmMist
2:35 AM70.2 °F69.3 °F97 %29.84 in0.8 miCalmMist
2:55 AM69.8 °F68.9 °F97 %29.84 in0.8 miCalmMist
3:15 AM69.6 °F68.9 °F98 %29.83 in0.8 miCalmMist
3:35 AM69.4 °F68.7 °F98 %29.83 in0.8 miCalmMist
3:55 AM69.1 °F68.4 °F98 %29.83 in0.5 miCalmFogFog
4:15 AM68.5 °F67.8 °F98 %29.83 in0.2 miCalmFogFog
4:35 AM68.2 °F67.5 °F98 %29.83 in0.2 miCalmFogFog
4:55 AM68.2 °F67.5 °F98 %29.83 in0.5 miCalmFogFog
5:15 AM67.6 °F66.9 °F98 %29.83 in0.5 miCalmFogFog
5:35 AM67.6 °F67.1 °F98 %29.83 in0.5 miCalmFogFog
5:55 AM67.8 °F67.1 °F98 %29.84 in0.5 miCalmFogFog
6:15 AM66.6 °F66.0 °F98 %29.84 in0.5 miCalmFogFog
6:35 AM66.6 °F65.8 °F98 %29.85 in0.2 miCalmFogFog
6:55 AM66.7 °F66.0 °F98 %29.85 in0.2 miCalmFogFog
7:15 AM65.8 °F65.1 °F98 %29.85 in0.8 miCalmMist
7:35 AM66.6 °F65.8 °F98 %29.85 in0.8 miCalmMist
7:55 AM67.3 °F66.4 °F97 %29.85 in1.2 miCalmMist
8:15 AM69.6 °F68.9 °F98 %29.87 in2.0 miCalmClear
8:35 AM72.0 °F71.1 °F97 %29.87 in4.0 miNNW (330°)4.6 mphClear
8:55 AM73.0 °F72.1 °F97 %29.87 in5.0 miNW (320°)4.6 mphClear
9:15 AM73.6 °F72.7 °F97 %29.88 in7.0 miNW (320°)4.6 mphClear
9:35 AM74.7 °F73.8 °F97 %29.88 in10.0 miNW (310°)4.6 mphClear
9:55 AM76.3 °F73.9 °F92 %29.88 in10.0 miNNW (330°)4.6 mphClear
10:15 AM79.0 °F73.2 °F82 %29.89 in10.0 miNW (310°)3.5 mphClear
10:35 AM80.6 °F73.2 °F78 %29.89 in10.0 miNW (310°)5.8 mphClear
10:55 AM81.9 °F73.6 °F76 %29.89 in10.0 miNW (320°)5.8 mphClear
11:15 AM83.7 °F72.1 °F68 %29.89 in10.0 miNW (320°)5.8 mphClear
11:35 AM85.5 °F71.4 °F63 %29.88 in10.0 miNNW (330°)3.5 mphClear
11:55 AM86.0 °F68.4 °F55 %29.88 in10.0 miWNW (290°)4.6 mphClear
12:15 PM87.3 °F68.7 °F54 %29.87 in10.0 miNNW (340°)3.5 mphClear
12:35 PM88.0 °F66.6 °F49 %29.87 in10.0 miNNW (330°)5.8 mphClear
12:55 PM88.5 °F65.7 °F47 %29.87 in10.0 miNW (320°)4.6 mphClear
1:15 PM88.7 °F64.9 °F45 %29.86 in10.0 miNW (320°)4.6 mphClear
1:35 PM89.6 °F62.6 °F40 %29.85 in10.0 miNW (320°)5.8 mphClear
1:55 PM90.0 °F62.6 °F40 %29.85 in10.0 miWNW (300°)3.5 mphClear
2:15 PM90.1 °F59.9 °F36 %29.84 in10.0 miNW (320°)4.6 mphClear
2:35 PM90.9 °F57.7 °F33 %29.83 in10.0 miWNW (290°)4.6 mphClear
2:55 PM90.5 °F56.8 °F32 %29.82 in10.0 miWNW (300°)3.5 mphClear
3:15 PM90.7 °F56.7 °F32 %29.82 in10.0 miWNW (300°)4.6 mphClear
3:35 PM90.5 °F54.7 °F30 %29.81 in10.0 miNW (320°)4.6 mphClear
3:55 PM90.5 °F54.9 °F30 %29.81 in10.0 miCalmClear
4:15 PM90.7 °F55.0 °F30 %29.80 in10.0 miCalmClear
4:35 PM90.5 °F51.4 °F26 %29.80 in10.0 miWest (270°)4.6 mphClear
4:55 PM90.0 °F49.8 °F25 %29.80 in10.0 miWNW (300°)4.6 mphClear
5:15 PM89.6 °F50.9 °F26 %29.80 in10.0 miWest (280°)3.5 mphClear
5:35 PM88.5 °F55.4 °F32 %29.80 in10.0 miCalmClear
5:55 PM87.4 °F56.7 °F35 %29.80 in10.0 miCalmClear
6:15 PM83.8 °F60.6 °F45 %29.80 in10.0 miCalmClear
6:35 PM80.2 °F64.4 °F58 %29.80 in10.0 miCalmClear
6:55 PM78.1 °F63.1 °F60 %29.80 in10.0 miCalmClear
7:15 PM75.7 °F64.6 °F68 %29.81 in10.0 miCalmClear
7:35 PM73.2 °F64.2 °F73 %29.80 in10.0 miCalmClear
7:55 PM71.4 °F64.6 °F79 %29.81 in10.0 miCalmClear
8:15 PM70.7 °F63.0 °F76 %29.81 in10.0 miCalmClear
8:35 PM69.8 °F62.8 °F78 %29.82 in10.0 miCalmClear
8:55 PM68.5 °F64.0 °F85 %29.82 in10.0 miSouth (190°)3.5 mphClear
9:15 PM71.1 °F64.6 °F80 %29.83 in10.0 miCalmClear
9:35 PM68.9 °F65.7 °F89 %29.83 in10.0 miCalmClear
9:55 PM68.9 °F66.4 °F92 %29.84 in10.0 miCalmClear
10:15 PM68.5 °F66.9 °F95 %29.84 in7.0 miCalmClear
10:35 PM68.2 °F67.1 °F96 %29.84 in7.0 miCalmClear
10:55 PM68.0 °F66.6 °F95 %29.84 in7.0 miCalmClear
11:15 PM68.0 °F66.9 °F96 %29.84 in7.0 miCalmClear
11:35 PM67.5 °F66.4 °F96 %29.85 in5.0 miCalmClear
11:55 PM67.6 °F66.7 °F97 %29.85 in4.0 miCalmClear
Hourly data recorded from KORG, located miles away from Mauriceville, Texas







STORIES FROM OUR PARTNERS